Regional Weather Roundup
Issued by NWS

Home | Current Version | Previous Version | Graphics & Text | Print | Product List | Glossary On
Versions: 1 2 3 4 5 6 7 8 9 10 11 12 13 14 15 16 17 18 19 20 21 22 23 24 25 26 27 28 29 30 31 32 33 34 35 36 37 38 39 40 41 42 43 44 45 46 47 48 49 50
000
ASUS45 KCYS 291510
RWRWY

WYOMING REGIONAL WEATHER ROUNDUP
NATIONAL WEATHER SERVICE CHEYENNE WY
900 AM MDT MON MAY 29 2017

NOTE:  "FAIR" INDICATES FEW OR NO CLOUDS BELOW 12,000 FEET
WITH NO SIGNIFICANT WEATHER AND/OR OBSTRUCTIONS TO VISIBILITY.

WYZ001-291600-
YELLOWSTONE NATIONAL PARK

CITY           SKY/WX    TMP DP  RH WIND       PRES   REMARKS
LK YELLOWSTONE   N/A     40  35  83 E3        30.40F
W YELLOWSTONE  NOT AVBL

$$
WYZ002>013-054>058-071-098>099-291600-
NORTHERN WYOMING

CITY           SKY/WX    TMP DP  RH WIND       PRES   REMARKS
JACKSON        SUNNY     48  36  61 CALM      30.25F
CODY           FAIR      58  40  51 CALM      30.30S
GREYBULL       FAIR      57  41  55 CALM      30.25S
WORLAND        FAIR      57  48  72 CALM      30.25F
SHERIDAN       FAIR      60  39  45 VRB5      30.25S
BUFFALO        FAIR      56  36  47 N16G26    30.27R
GILLETTE       FAIR      57  36  45 NW12      30.23S
HULETT         FAIR      54  32  43 NW9       30.23R
NEWCASTLE      FAIR      55  28  35 NW18G26   30.21S

$$
WYZ014>020-022>026-101>103-291600-
CENTRAL WYOMING

CITY           SKY/WX    TMP DP  RH WIND       PRES   REMARKS
BIG PINEY      FAIR      50  36  58 VRB3      30.36S
PINEDALE       FAIR      50  36  57 N5        30.37S
DUBOIS         FAIR      48  34  57 CALM      30.34F
LANDER         FAIR      55  41  59 CALM      30.29S
RIVERTON       FAIR      57  43  59 W6        30.29S
CASPER         FAIR      56  44  64 W5        30.28S
DOUGLAS        FAIR      59  43  55 W14       30.25F

$$
WYZ021-027>030-104>119-291600-
SOUTHERN WYOMING

CITY           SKY/WX    TMP DP  RH WIND       PRES   REMARKS
EVANSTON       FAIR      51  38  60 NE6       30.32S
KEMMERER         N/A     52  34  50 E7        30.35S
FORT BRIDGER   FAIR      52  37  58 E8        30.36S
ROCK SPRINGS   FAIR      54  38  54 VRB6      30.33S
DIXON            N/A     55  34  45 CALM      30.32S
RAWLINS        FAIR      53  38  56 CALM      30.33S
SARATOGA       FAIR      52  36  54 SE5       30.33S
LARAMIE        FAIR      50  37  61 CALM      30.31S
CHEYENNE       FAIR      54  34  46 N6        30.29R
TORRINGTON     FAIR      61  45  55 W8        30.20S
PINE BLUFFS    FAIR      59  37  44 N12G18    30.26S

$$



USA.gov is the U.S. government's official web portal to all federal, state and local government web resources and services.